CZ-3C DEB, 40868

Orbit data source: Space-Track

CZ-3C DEB, 40868 is space debris in HEO originally from a launch on Fri, 24 Feb 2012 UTC launched from the Xichang Space Center, China (XSC). Debris objects in space refer to the collection of defunct objects orbiting the Earth. Examples of debris include non-operational satellites, rocket bodies, and fragments generated from explosions, collisions, or faulty payload assembly.

Not visible in the next 10 days
CZ-3C DEB details
Identifier
40868, 2012-008AJ
Orbit
HEO
Last TLE update20 hours ago
Origin
Flag of CNCASC (CN / PRC)
ManufacturerCALT
MissionSpacecraft
Bus & MotorUnknown
MassUnknown
Launch date (UTC)
2012-02-24 (13 years ago)
Launch vehicleUnknown
Launch site
Xichang Space Center, China (XSC)
Object type
Payload
Rocket body
Debris
Shape & HBRUnknown
Radar Cross SectionMedium (>0.1 m² and <1 m²)

Expand to show TLE details & history

TLE from 20 hours ago
0 CZ-3C DEB
1 40868U 12008AJ  24360.67928340 -.00000051  00000-0  00000-0 0  9998
2 40868  21.7532  67.9204 6815141 160.1245 250.8084  2.28108229983754
Epoch: 2024-12-25T16:18Z
Definitive object data (Epoch: 2024-12-25T16:18:10.085Z)
Latitude0.00016°
Longitude88.67931°
Altitude30,011.44 km
Speed2.357 km/s
True Right ascension04h 31m 33s
True Declination0° 00' 01"
Sunlit
Object was in daylight at TLE epoch
Visualization TLE readout
Latitude-3.5737°
Longitude79.44781°
Altitude33,398.501 km
Speed1.921 km/s
Apparent Right ascension03h 30m 51s
Apparent Declination-8° 49' 47"
Sunlit
Object is in daylight
Visualization observer readout
Local Sidereal Time11:42:38
Azimuth285.314° WNW
Elevation-30.707°
Doppler factor1
Orbital elements
Apogee altitude34,617.773 km
Perigee altitude1,386.662 km
Semi-major axis24,380.355 km
Eccentricity0.6815141
Inclination21.7532°
RAAN67.9204°
Arg. of periapsis160.1245°
True anomaly199.84109°
Mean anomaly250.8084°
Eccentric anomaly223.78772°
Mean motion0.57014 °/min
BSTARUnknown
Orbital period631.42 mins
Loading maneuver chart data...
Loading historical data...
Loading historical data...
Loading historical data...
Loading historical data...
Loading historical data...
Loading historical data...
Loading historical data...

CZ-3C DEB Visibility forecast

Observer location: undefined°, undefined

CZ-3C DEB is not visible in the next 10 days
Span
Click to sort rows by Start time (UTC) header in descending order
Start Az.
Max El. time (UTC)
Max El. Az.
Max El.
End time (UTC)
End Az.
|